Change the Weather History Date:

Monday, October 21, 2013

  Actual Average (KACT) Record (KACT)
Temperature  
Mean Temperature 66 °F 67 °F  
Max Temperature 79 °F 78 °F 91 °F (2004)
Min Temperature 55 °F 55 °F 36 °F (1976)
Degree Days  
Heating Degree Days 0 2  
Month to date heating degree days 28  
Since 1 July heating degree days 34  
Cooling Degree Days 1 4  
Month to date cooling degree days 126  
Year to date cooling degree days 2720  
Growing Degree Days 16 (Base 50)    
Moisture  
Dew Point 57 °F    
Average Humidity 77    
Maximum Humidity 93    
Minimum Humidity 60    
Precipitation  
Precipitation 0.00 in 0.14 in 3.72 in (1972)
Month to date precipitation 2.71  
Year to date precipitation 27.93  
Snow  
Snow 0.00 in 0.00 in 0.00 in ()
Month to date snowfall 0.0  
Since 1 July snowfall 0.0  
Since 1 September snowfall 0.0  
Snow Depth -    
Sea Level Pressure  
Sea Level Pressure 30.00 in    
Wind  
Wind Speed 7 mph (NNW)    
Max Wind Speed 17 mph    
Max Gust Speed 25 mph    
Visibility 9 miles    
Events      
T = Trace of Precipitation, MM = Missing Value Source: NWS Daily Summary

Daily Weather History Graph

Daily Weather History Graph

Search for Another Location

Airport or City:

Trip Planner

Search our weather history database for the weather conditions in past years. The results will help you decide how hot, cold, wet, or windy it might be!

Date:

Astronomy

Oct. 21, 2013 Rise Set
Actual Time 7:33 AM CDT 6:46 PM CDT
Civil Twilight 7:08 AM CDT 7:10 PM CDT
Nautical Twilight 6:40 AM CDT 7:39 PM CDT
Astronomical Twilight 6:11 AM CDT 8:07 PM CDT
Moon 8:48 PM CDT (10/21) 10:01 AM CDT (10/21)
Length of Visible Light 12h 02m
Length of Day
11h 12m
Waning Gibbous, 92% of the Moon is Illuminated
Oct 21
Waning Gibbous
Oct 26
Last Quarter
Nov 3
New
Nov 9
First Quarter
Nov 17
Full

Hourly Weather History & Observations

Time (CDT) Temp. Dew Point Humidity Pressure Visibility Wind Dir Wind Speed Gust Speed Precip Events Conditions
12:53 AM 57.0 °F 46.9 °F 69% 29.95 in 10.0 mi South 8.1 mph - N/A   Clear
1:53 AM 55.0 °F 48.0 °F 77% 29.96 in 10.0 mi SSE 5.8 mph - N/A   Clear
2:53 AM 55.9 °F 50.0 °F 80% 29.95 in 10.0 mi SE 5.8 mph - N/A   Clear
3:53 AM 57.0 °F 52.0 °F 83% 29.95 in 10.0 mi SSE 8.1 mph - N/A   Clear
4:53 AM 57.0 °F 53.1 °F 87% 29.96 in 9.0 mi SE 4.6 mph - N/A   Clear
5:53 AM 55.9 °F 54.0 °F 93% 29.96 in 7.0 mi SE 4.6 mph - N/A   Clear
6:53 AM 57.0 °F 55.0 °F 93% 29.96 in 6.0 mi SE 4.6 mph - N/A   Clear
7:53 AM 60.1 °F 57.0 °F 90% 29.97 in 6.0 mi SSE 4.6 mph - N/A   Clear
8:53 AM 61.0 °F 57.9 °F 90% 29.98 in 5.0 mi SSE 6.9 mph - N/A   Clear
9:53 AM 63.0 °F 59.0 °F 87% 30.01 in 7.0 mi Variable 3.5 mph - N/A   Partly Cloudy
10:07 AM 64.4 °F 59.0 °F 83% 30.02 in 7.0 mi Calm Calm - N/A   Mostly Cloudy
10:30 AM 64.4 °F 59.0 °F 83% 30.02 in 7.0 mi Calm Calm - N/A   Mostly Cloudy
10:53 AM 66.9 °F 60.1 °F 79% 30.02 in 8.0 mi Calm Calm - N/A   Mostly Cloudy
11:20 AM 68.0 °F 60.8 °F 78% 30.03 in 8.0 mi SW 3.5 mph - N/A   Mostly Cloudy
11:31 AM 69.8 °F 60.8 °F 73% 30.03 in 7.0 mi Calm Calm - N/A   Overcast
11:48 AM 69.8 °F 60.8 °F 73% 30.03 in 9.0 mi Variable 3.5 mph - N/A   Mostly Cloudy
11:53 AM 70.0 °F 61.0 °F 73% 30.02 in 9.0 mi WSW 4.6 mph - N/A   Mostly Cloudy
12:53 PM 75.0 °F 63.0 °F 66% 29.99 in 10.0 mi SW 5.8 mph - N/A   Partly Cloudy
1:53 PM 77.0 °F 63.0 °F 62% 29.96 in 10.0 mi SW 6.9 mph - N/A   Partly Cloudy
2:53 PM 77.0 °F 62.1 °F 60% 29.94 in 10.0 mi SW 6.9 mph - N/A   Mostly Cloudy
3:53 PM 73.0 °F 64.0 °F 73% 29.94 in 10.0 mi NNW 9.2 mph - N/A   Mostly Cloudy
4:53 PM 75.0 °F 62.1 °F 64% 29.94 in 9.0 mi NW 11.5 mph - 0.00 in   Partly Cloudy
5:53 PM 72.0 °F 62.1 °F 71% 29.95 in 9.0 mi NNW 6.9 mph - N/A   Mostly Cloudy
6:23 PM 69.8 °F 57.2 °F 64% 29.97 in 10.0 mi North 17.3 mph - N/A   Overcast
6:31 PM 66.2 °F 57.2 °F 73% 29.98 in 10.0 mi North 17.3 mph 25.3 mph N/A   Overcast
6:53 PM 66.0 °F 55.9 °F 70% 29.98 in 10.0 mi North 16.1 mph 24.2 mph N/A   Overcast
7:03 PM 64.4 °F 55.4 °F 73% 29.99 in 10.0 mi North 13.8 mph 23.0 mph N/A   Overcast
7:40 PM 64.4 °F 55.4 °F 73% 30.01 in 10.0 mi North 12.7 mph - N/A   Overcast
7:53 PM 64.0 °F 55.0 °F 73% 30.01 in 10.0 mi North 12.7 mph 20.7 mph N/A   Overcast
8:53 PM 63.0 °F 54.0 °F 72% 30.05 in 10.0 mi North 11.5 mph - N/A   Overcast
9:53 PM 62.1 °F 54.0 °F 75% 30.07 in 10.0 mi North 9.2 mph - N/A   Overcast
10:21 PM 60.8 °F 53.6 °F 77% 30.08 in 10.0 mi North 11.5 mph - N/A   Overcast
10:43 PM 60.8 °F 53.6 °F 77% 30.09 in 10.0 mi North 8.1 mph - N/A   Overcast
10:53 PM 60.1 °F 53.1 °F 78% 30.08 in 10.0 mi North 6.9 mph - N/A   Overcast
11:49 PM 59.0 °F 53.6 °F 82% 30.09 in 10.0 mi North 15.0 mph 18.4 mph N/A   Overcast
11:53 PM 59.0 °F 53.1 °F 81% 30.09 in 10.0 mi North 11.5 mph 18.4 mph N/A   Overcast